STARLINK-2081 (47366 NORAD) Tracking and Keplerian Element Data

This shows tracking and keplerian element data for the satellite.

Feedback or suggestion? Click here.




ElementValue
Catalog47366
NameSTARLINK-2081
Epoch Orbit175
Epoch Day101.91668981
Epoch Year2021
RAAN189.6808
Inclination53.0521
Eccentricity0.0001121
Argument of Perigee95.2176
Mean Anonmoly337.8507
Mean Motion15.06404314
Decay Rate-0.00032602
L11 47366U 21005T 21101.91668981 -.00032602 00000-0 -21796-2 0 9999
L22 47366 53.0521 189.6808 0001121 95.2176 337.8507 15.06404314 1753

Live tracking and technical data element details for STARLINK-2081 (NORAD 47366). STARLINK-2081 can be tracked NOW for your location showing map with azimuth and elevation plus other details from your city location.

Track the satellite on the map from your city or location and see movement details for azimuth, elevation, latitude, longitude, range, height, and movement on the map or in text.







IsCatalogInMostPopularTable: catalog: 47366, numindb: 12
Update: records affected: 1



GetName: 47366 STARLINK-2081

Hit Count: updated at: Tue, 13 Apr 2021 04:49:30 GMT